Dewpoint
30 31 30 28 27 23 23 24 27 27 24 24 25 25 24 24 23 25 24 25 29 28 29 29 31 31 30 30 33 36 40 41 41 52 55 57 56 55 56 56 58 59 60 61 61 60 58 58 59 61 62 63 63 67 67 68 68 70 69 70 71 71 72 72 72 72 71 69 71 71 69 69 69 72 72 70 70 69 69 73 74 77 77 78 78 78
30 30 28 28 28 26 25 25 27 27 22 20 21 22 22 23 21 23 24 25 27 26 28 30 29 30 30 30 30 35 38 38 38 40 58 56 57 56 57 57 57 59 61 61 61 60 59 59 58 59 62 64 63 67 67 67 67 70 68 69 70 71 71 72 71 72 72 71 70 70 69 67 67 70 71 70 71 67 69 76 76 77 77 77 78 77
27 27 28 27 27 27 26 26 25 24 22 19 19 20 19 20 22 23 23 24 26 26 27 27 29 30 31 29 29 30 35 39 38 39 39 59 57 58 56 57 58 60 61 59 59 61 59 59 59 60 63 63 63 64 66 68 69 70 70 70 71 71 71 72 72 72 72 72 72 70 70 69 67 70 70 69 69 71 69 73 76 76 77 77 77 77
25 24 27 27 27 27 25 25 23 20 20 21 19 19 18 19 20 21 22 23 21 25 25 28 25 27 30 33 30 29 29 35 38 38 37 53 55 55 55 56 57 59 60 59 61 59 59 59 62 62 63 65 64 67 67 67 69 69 72 71 72 72 71 72 73 73 73 73 74 73 73 71 70 70 71 73 73 73 71 70 74 77 77 77 76 76
21 22 24 27 25 23 22 20 19 18 17 22 22 19 17 16 18 17 19 20 22 24 23 26 27 27 28 27 27 29 29 30 35 37 39 51 50 57 57 57 58 57 60 60 60 61 59 60 61 63 65 64 64 66 67 67 68 68 71 72 73 73 71 73 73 73 73 73 73 73 74 73 74 75 72 71 71 72 73 70 72 75 76 77 76 76
17 18 17 20 20 18 18 17 17 19 18 19 21 21 16 15 16 18 18 16 17 21 24 25 31 30 30 28 27 28 27 30 39 40 40 46 55 54 55 57 57 57 60 61 61 60 59 61 63 65 66 64 65 66 68 68 69 69 71 72 73 73 72 72 73 73 73 73 72 72 72 72 71 73 72 71 70 69 70 67 68 73 74 75 75 76
16 17 19 18 18 16 15 16 17 20 21 21 20 19 17 15 15 16 15 15 18 21 20 23 25 26 28 28 30 30 30 31 31 38 37 45 54 54 54 55 57 56 58 60 60 62 62 63 63 64 66 66 65 66 68 69 70 72 72 73 73 73 73 73 73 73 74 73 73 73 72 72 71 71 73 74 71 71 72 71 72 74 75 76 75 74
17 17 19 20 21 19 16 17 18 18 20 19 18 15 14 14 15 14 14 14 17 18 18 22 22 24 25 27 29 27 30 33 34 35 40 38 54 52 53 54 56 56 59 59 63 64 64 65 64 65 66 66 66 67 68 69 70 72 73 74 73 74 73 73 73 73 74 73 73 73 72 72 72 71 73 74 74 74 75 73 71 73 74 76 75 74
18 16 16 18 20 20 18 18 20 20 18 15 15 14 11 11 13 14 12 12 14 12 19 18 20 24 25 27 30 30 28 27 29 30 39 44 48 53 54 55 56 57 59 60 62 63 65 65 65 65 67 67 66 66 68 70 71 73 73 74 74 74 74 74 75 73 74 74 74 74 73 73 73 73 73 74 74 74 75 74 73 75 74 76 76 75
19 18 15 17 17 17 18 17 19 20 16 14 14 12 10 9 8 10 11 12 15 18 18 20 14 21 23 26 25 27 29 29 29 29 27 39 52 48 51 56 58 58 60 61 61 62 64 64 64 64 66 67 65 67 70 70 71 72 73 74 74 74 74 74 75 74 74 75 75 74 74 73 74 74 73 73 74 75 76 75 75 75 76 75 76 75
18 24 22 15 16 17 18 16 16 17 15 14 13 11 10 7 8 10 9 15 16 14 19 13 13 11 16 24 24 26 25 27 26 31 30 38 45 54 49 50 53 53 56 59 61 64 65 65 65 63 65 68 66 68 70 70 71 72 73 74 74 74 74 74 75 74 74 75 74 74 74 74 74 74 74 74 74 75 75 75 74 74 76 76 75 74
19 18 19 17 17 17 18 15 15 15 14 12 11 12 12 12 11 15 12 14 11 10 15 11 11 14 19 23 22 25 27 25 27 28 30 31 39 41 54 50 52 54 55 56 58 59 62 63 63 64 67 67 67 68 69 69 71 72 73 74 74 75 75 74 75 74 74 74 74 74 74 74 74 74 73 73 74 74 74 74 74 76 76 76 76 76
17 17 18 19 24 17 18 16 13 13 13 12 14 17 12 12 15 10 16 10 6 7 10 6 9 12 16 23 21 19 21 25 29 28 28 33 40 44 42 52 52 52 55 55 58 61 62 61 61 63 65 67 68 69 70 70 70 72 73 74 74 75 75 74 74 75 75 74 74 74 74 74 75 75 74 74 73 75 75 75 74 76 76 76 76 76
16 17 17 17 18 21 18 16 14 11 10 12 15 15 13 10 10 17 16 21 15 11 7 6 8 9 15 17 20 16 18 23 27 30 28 33 41 45 46 49 50 52 53 54 56 57 60 61 62 64 65 67 69 69 70 69 71 73 73 74 74 75 75 75 74 75 75 75 74 74 74 75 75 75 75 74 73 74 76 76 75 74 75 76 75 75
15 14 15 16 16 18 17 17 16 13 12 13 13 10 12 14 11 17 16 15 14 16 11 9 10 15 9 16 13 14 16 20 23 24 31 35 39 48 46 47 45 54 54 55 58 59 60 60 62 62 65 68 69 68 68 69 71 73 73 75 75 75 75 75 75 75 75 75 75 74 74 75 75 75 75 74 74 74 75 76 75 76 75 75 75 75
15 15 15 16 17 19 16 17 18 15 14 13 13 11 10 11 18 15 15 13 12 10 10 14 11 13 14 22 17 14 9 14 17 23 27 35 40 44 47 48 44 55 55 55 56 59 61 63 64 62 65 68 69 69 68 69 71 72 73 75 75 75 75 75 75 75 75 75 74 75 74 74 75 76 75 75 75 75 75 76 76 76 76 76 76 77
18 15 15 15 15 17 16 17 19 16 14 13 10 9 8 10 11 18 20 13 12 12 14 15 13 10 10 8 8 12 9 12 15 15 17 27 35 48 48 48 43 41 55 55 56 57 61 62 65 65 65 66 67 67 68 71 71 72 73 74 75 75 75 75 75 75 75 75 75 75 74 74 75 75 75 73 74 72 74 76 77 76 76 76 76 76
18 16 15 14 14 16 17 18 19 15 12 11 8 7 9 10 10 17 14 21 15 9 13 8 10 13 11 13 14 12 14 13 13 14 12 25 33 47 46 47 47 45 54 55 58 59 59 61 64 64 65 66 68 67 69 72 72 73 74 74 75 75 76 75 75 75 75 75 75 75 74 75 75 74 73 74 74 73 73 74 76 76 76 75 74 74
19 17 15 14 14 15 18 19 18 17 14 11 9 9 6 11 14 19 18 14 15 17 18 15 11 12 14 19 13 13 12 15 21 23 17 17 24 41 48 50 49 45 48 52 54 59 59 59 61 66 66 66 68 70 69 71 71 72 73 74 74 75 75 75 74 75 75 75 74 74 74 75 75 74 74 74 75 74 73 71 73 74 75 75 75 74
18 16 17 14 13 14 18 20 20 17 15 12 12 9 9 12 14 18 17 21 23 19 18 17 17 16 16 16 14 14 17 22 17 19 16 15 26 39 47 43 46 48 47 53 54 55 55 58 64 65 66 66 67 69 68 68 69 69 71 74 74 75 75 75 75 75 75 75 74 74 74 75 75 75 75 75 75 74 73 72 71 72 72 74 75 74
19 25 18 13 14 14 17 20 19 18 14 10 10 12 11 11 12 13 13 13 17 21 21 20 15 19 19 15 15 20 22 25 22 24 31 21 25 28 49 45 49 49 47 49 49 53 59 61 63 65 66 66 67 69 68 67 68 68 69 73 74 75 74 74 74 74 74 75 74 75 75 75 75 75 75 74 75 74 74 74 73 73 73 75 74 75
22 21 18 18 15 15 15 18 18 18 16 11 9 12 12 10 11 12 14 10 10 15 21 18 19 29 12 11 17 20 26 20 23 25 26 23 20 33 36 50 50 49 49 49 48 47 51 59 62 64 66 67 67 68 68 67 68 68 69 71 73 73 73 73 73 74 74 75 74 73 74 74 74 74 74 73 74 74 74 74 74 74 74 73 75 75
25 22 18 18 19 14 15 16 18 18 17 12 9 10 12 11 12 13 15 15 11 9 10 16 16 29 32 25 27 20 21 18 23 20 22 20 25 27 33 39 49 50 47 43 52 48 52 58 60 64 67 68 67 68 68 68 68 68 69 71 72 72 73 72 73 73 75 74 74 74 74 74 74 74 74 72 72 72 71 73 74 75 74 73 72 74
44 23 24 21 29 19 14 14 17 18 16 12 9 10 11 10 9 10 13 18 16 13 11 11 21 21 22 49 39 20 37 20 26 20 30 20 20 27 31 31 52 51 51 45 44 48 54 57 64 67 69 69 69 70 69 69 69 69 69 70 71 72 72 72 72 72 74 74 73 73 74 74 74 73 73 72 73 72 71 71 72 74 73 73 72 73
32 31 28 25 29 28 13 16 15 17 17 14 10 10 11 12 12 11 12 21 19 13 10 12 13 21 23 35 34 27 19 15 21 18 21 23 28 23 30 40 49 54 54 50 50 55 57 58 64 68 69 70 70 69 70 70 70 69 69 69 70 71 72 72 73 73 73 73 72 72 73 73 73 73 73 73 72 71 71 70 72 73 73 72 71 72
34 34 32 26 26 23 18 17 17 18 17 15 13 10 11 10 14 15 13 24 19 34 32 17 17 30 28 39 28 23 20 34 22 21 20 26 32 22 26 56 54 53 55 54 56 59 54 60 66 70 71 71 69 68 71 72 70 69 70 70 70 70 72 72 72 72 73 72 72 73 73 74 72 71 73 73 70 70 70 70 70 72 73 73 72 72
32 32 35 34 30 27 23 29 20 21 17 15 12 10 9 9 9 15 19 21 17 27 26 32 29 31 30 26 28 22 23 20 15 24 22 36 44 47 58 58 60 65 58 54 59 60 59 62 66 71 72 70 67 67 70 70 70 69 72 71 70 71 71 73 73 73 72 73 72 73 74 73 72 73 73 73 72 71 70 69 69 70 71 72 72 71
34 32 32 37 36 34 34 32 28 25 16 16 14 9 9 9 11 13 15 15 41 25 25 36 49 29 28 26 25 29 22 34 25 29 24 44 45 42 50 60 60 52 58 63 64 70 71 68 71 72 72 70 68 68 68 69 69 71 72 71 70 70 69 70 72 73 73 74 73 74 74 74 74 72 73 73 74 73 71 70 70 71 72 74 73 71
31 31 32 29 28 28 28 29 29 29 26 20 15 11 9 10 11 13 20 17 29 24 26 41 38 32 29 23 23 27 33 30 17 19 29 38 36 47 55 46 43 48 56 55 69 72 71 73 73 72 72 71 69 68 68 68 69 71 73 72 72 69 70 72 72 73 73 74 75 75 75 75 75 74 74 73 74 73 72 72 72 73 73 73 73 72
33 31 33 30 28 25 26 27 27 29 26 27 16 13 10 9 11 11 13 14 17 38 32 34 45 29 24 24 23 22 27 21 24 33 34 36 35 52 41 47 37 43 48 56 62 64 71 71 74 74 74 73 70 71 67 69 71 71 71 71 70 71 71 72 73 73 73 74 75 76 76 76 76 75 75 74 75 74 73 73 73 73 73 72 73 74
31 33 33 31 32 29 27 27 27 28 29 27 26 14 11 10 11 12 11 13 19 21 19 19 37 36 26 35 27 27 37 25 33 29 27 41 32 28 32 30 36 38 39 47 65 61 69 70 72 74 74 74 73 72 70 70 71 71 67 69 68 71 71 71 74 74 73 74 76 76 76 76 76 76 75 75 75 76 75 74 74 74 74 73 73 73
31 31 30 31 30 29 29 29 27 27 28 27 25 22 17 12 14 13 15 14 18 26 27 21 33 28 31 32 26 32 32 36 34 38 35 33 26 36 30 28 33 45 42 50 57 59 68 67 70 71 72 70 70 72 71 73 71 70 67 70 69 68 68 69 72 73 74 74 76 77 77 76 77 77 76 76 75 76 76 75 74 74 74 73 73 74
30 30 30 29 28 29 28 28 26 27 28 26 26 25 21 19 17 15 16 18 18 18 22 24 31 33 38 37 30 29 23 30 32 28 33 38 52 37 37 33 33 35 49 58 63 67 62 61 64 71 68 67 68 67 67 71 68 70 71 71 72 71 69 70 71 74 75 75 76 77 77 77 77 77 77 76 76 76 76 76 75 74 74 73 73 73
29 28 29 31 29 28 27 27 27 27 26 26 28 27 25 20 18 17 14 16 17 16 20 24 30 39 35 30 28 32 31 37 40 49 40 49 49 50 33 35 32 32 32 38 52 56 56 65 68 68 69 73 70 64 68 70 68 70 71 73 74 72 73 72 72 75 75 75 76 77 77 78 78 77 77 77 77 76 76 76 76 75 75 74 75 74
27 28 28 33 29 27 29 29 28 26 26 32 27 25 23 24 24 21 21 16 16 16 18 24 26 32 36 33 32 39 46 36 33 34 33 32 43 40 46 36 41 45 50 57 54 49 68 66 70 71 70 63 62 69 69 70 69 71 72 73 74 74 74 73 73 74 76 75 76 77 77 78 78 78 78 78 77 77 76 77 77 77 76 74 74 74
24 26 28 28 29 29 29 27 24 24 30 28 28 26 26 24 25 25 24 23 20 18 25 26 30 31 36 35 33 38 41 32 33 41 40 32 32 34 29 31 33 32 38 48 59 73 74 69 70 63 71 70 61 57 64 68 65 64 70 73 73 74 74 74 74 73 76 76 76 77 77 78 78 79 78 78 78 77 77 77 77 77 76 75 73 74
23 26 26 26 30 26 27 27 24 32 26 25 25 27 27 29 28 28 27 28 25 25 26 31 32 31 30 30 32 34 35 32 37 42 30 28 29 24 31 43 32 33 39 54 58 69 72 72 69 68 71 68 68 63 66 63 65 67 68 71 71 74 74 74 74 73 75 76 75 76 77 78 78 79 78 78 78 77 77 77 78 78 77 75 74 73
27 25 27 28 28 28 27 26 25 23 25 27 31 27 27 28 30 29 31 30 30 26 26 28 31 31 28 26 29 32 31 35 34 34 34 28 26 42 60 62 61 62 62 62 67 68 74 75 74 72 72 71 71 73 76 71 72 74 73 72 72 73 74 73 73 73 74 76 75 75 77 78 79 79 78 78 78 77 77 77 77 77 77 76 74 72
20 24 28 25 26 26 27 25 25 24 26 32 28 27 29 32 30 30 30 27 32 29 28 26 26 30 31 37 35 32 30 29 30 50 51 53 53 61 63 62 62 61 64 67 67 66 67 72 72 69 70 71 69 74 77 77 76 73 75 74 72 72 71 72 73 73 73 75 76 76 76 77 79 79 78 78 78 78 77 77 77 77 78 76 75 73
18 20 24 25 27 26 26 24 24 29 27 34 28 27 30 34 31 34 28 28 51 47 45 36 26 39 54 54 48 45 42 35 41 55 51 52 53 63 64 65 65 65 66 66 65 65 68 71 73 74 74 72 77 75 76 75 73 73 75 75 71 70 70 72 73 74 74 75 76 76 76 77 79 79 78 78 79 78 78 78 77 77 77 76 75 75
20 20 21 22 23 25 27 24 24 28 40 32 36 35 32 32 33 32 29 49 51 49 49 48 51 51 53 53 50 47 51 52 53 54 55 55 56 60 63 65 65 65 64 64 67 72 69 71 73 72 72 73 75 75 75 74 72 73 74 76 73 71 71 73 75 76 75 75 74 75 76 77 78 78 77 78 78 78 77 77 76 76 76 75 75 75
20 22 22 23 21 22 23 22 23 27 34 31 36 38 44 35 31 33 53 52 51 48 50 49 52 53 52 53 53 52 51 50 53 55 56 55 55 59 61 61 64 65 63 65 67 71 69 71 72 72 71 73 73 72 71 74 75 75 76 76 74 75 74 76 77 77 77 77 75 76 76 76 77 78 76 77 78 79 78 78 77 77 76 75 76 77
20 18 17 18 22 21 24 23 23 23 35 30 37 43 45 44 47 49 52 50 47 51 50 52 54 54 54 54 52 51 52 51 54 56 56 58 58 59 61 61 65 65 66 67 68 68 67 70 71 71 71 70 73 72 70 70 74 73 75 76 75 76 77 77 77 78 77 77 76 76 76 77 77 77 75 77 78 78 78 78 78 77 77 77 77 77
27 18 19 19 21 19 20 21 23 30 39 39 43 43 43 43 45 48 47 48 49 52 52 52 54 55 54 54 52 53 51 54 54 55 56 58 58 59 59 63 66 66 64 65 66 67 67 71 71 71 71 69 73 75 73 74 73 73 73 73 74 78 77 79 79 79 77 77 77 77 76 77 76 77 77 78 78 78 78 78 78 78 78 78 77 77
32 31 37 32 23 20 22 23 41 40 37 36 39 40 40 41 40 43 47 48 53 53 54 53 54 54 53 55 55 55 55 54 56 55 56 57 60 60 62 64 65 65 64 65 65 67 67 67 69 70 70 71 73 74 76 74 73 72 75 77 78 75 77 77 77 78 77 76 77 77 76 77 77 77 77 78 78 78 78 78 78 78 78 78 77 77
31 33 37 36 35 36 35 36 39 39 38 37 37 37 37 37 36 40 47 51 52 51 52 54 54 54 53 55 55 57 57 56 55 56 57 58 60 60 63 64 64 65 65 66 68 68 67 67 68 69 70 70 71 72 75 75 74 76 75 75 76 76 77 77 77 77 77 76 77 76 76 75 74 77 77 77 77 77 78 77 76 77 78 78 76 76
30 30 31 30 35 30 28 36 37 38 38 37 37 37 37 36 36 42 47 49 48 46 48 52 52 53 54 56 55 56 56 56 57 58 60 61 60 62 62 63 64 65 66 67 68 69 69 69 67 69 70 70 71 71 71 71 72 74 73 73 73 74 75 75 77 78 78 78 77 77 76 75 72 73 74 76 74 75 76 76 76 76 76 76 74 74
28 34 32 31 32 30 31 35 37 37 38 37 36 38 38 39 41 45 46 46 45 47 48 49 50 51 52 54 56 56 56 57 59 59 59 60 61 62 63 63 65 66 67 67 68 68 69 69 68 68 68 69 70 71 71 72 72 73 74 73 74 75 76 76 77 76 76 76 76 76 76 76 75 74 72 73 73 71 72 73 73 73 76 74 74 73
34 36 30 33 31 30 34 35 36 37 36 36 36 36 38 38 45 45 45 44 46 46 47 46 47 49 51 52 55 57 56 58 59 60 60 61 62 63 64 65 65 66 67 68 68 68 69 69 68 68 67 68 68 69 70 70 70 71 73 74 77 77 75 77 76 77 76 75 76 77 78 76 77 74 73 72 67 65 64 68 74 71 68 66 70 71
28 29 32 32 30 29 29 31 35 29 29 31 35 36 38 42 43 43 43 44 45 46 47 47 46 48 49 51 54 55 56 57 58 60 60 62 63 65 66 66 66 64 66 67 67 68 68 68 68 68 68 68 69 69 70 70 70 71 71 73 75 76 76 76 76 76 76 77 77 77 78 77 76 77 74 69 65 63 62 58 53 66 65 62 56 53
29 33 30 30 29 25 30 33 37 36 35 35 37 38 39 41 42 42 42 43 44 46 46 47 46 47 49 52 53 55 58 58 59 60 60 61 63 65 65 66 66 67 66 66 66 67 67 67 67 67 67 68 69 69 69 69 70 71 72 73 73 74 74 75 75 74 74 74 74 74 76 75 75 77 76 72 70 65 63 62 61 50 49 55 56 51